sat.trackr.live / text

‹ back to catalog

ONEWEB-0051

NORAD 45155 · 2020-008AA

PAYLOAD ACTIVE UNKNOWN

§ Identity

Operator
Country
UK
Launch date
2020-02-06
Launch site
TYMSC
Launch vehicle
Mass (kg)
RCS (m²)

Purposes: comms

External: N2YO · Heavens-Above · Gunter

§ Orbital elements

Epoch: 2026-05-25T02:53:17.369088Z

Period
109.81 min
Inclination
87.8911°
Eccentricity
0.0001831
Mean motion
13.11415302 rev/d
Perigee alt
1,216.3 km
Apogee alt
1,219.1 km
Semi-major
7,595.8 km
B*
1.4510e-3
RAAN
25.6563°
Arg perigee
82.2581°
Mean anomaly
277.8755°
Rev number
30,806

§ Raw data

ONEWEB-00511 45155U 20008AA  26145.12033992  .00000527  00000+0  14510-2 0  99932 45155  87.8911  25.6563 0001831  82.2581 277.8755 13.11415302308061

JSON: /api/v1/satellites/45155 · /tle

For live sub-satellite position, see the globe view (requires WebGL).

§ Visibility from observer

Set your observer location to see the next 7 days of passes ≥ 10°. The values pass through the URL so the page stays shareable.

No JS? Fill the form by hand. The geolocation button needs JavaScript.